Stations météo

réclame
Mon MeteoGroup
Altnaharra, Grande-Bretagne (3044): Température de l'air & dewpoint: 13.06.2018 19:00:00 - 19.06.2018 19:00:00 (BST)Altnaharra, Grande-Bretagne (3044): Température de l'air -20cm & Température de l'air -100cm: 13.06.2018 19:00:00 - 19.06.2018 19:00:00 (BST)Altnaharra, Grande-Bretagne (3044): Vitesse du vent & gusts: 13.06.2018 19:00:00 - 19.06.2018 19:00:00 (BST)Altnaharra, Grande-Bretagne (3044): Direction du vent: 13.06.2018 19:00:00 - 19.06.2018 19:00:00 (BST)Altnaharra, Grande-Bretagne (3044): reduced air pressure: 13.06.2018 19:00:00 - 19.06.2018 19:00:00 (BST)Altnaharra, Grande-Bretagne (3044): visibility: 13.06.2018 19:00:00 - 19.06.2018 19:00:00 (BST)Altnaharra, Grande-Bretagne (3044): Ensoleillement: 13.06.2018 19:00:00 - 19.06.2018 19:00:00 (BST)Altnaharra, Grande-Bretagne (3044): Quantités de précipitations: 13.06.2018 19:00:00 - 19.06.2018 19:00:00 (BST)
Date & Time tt [°C] td [°C] tt -20cm [°C] tt -100cm [°C] ff [km/h] ff [knt] fx [km/h] fx [knt] dd ppp [hPa] vv [km] sd [min] rr [mm]
19.06.2018 19:00:00 - - - - - - - - - - - - -
19.06.2018 18:00:00 12,9 5,3 - - 21 11 - - SW 1014,9 27 6 0,0
19.06.2018 17:00:00 12,5 5,9 - - 26 14 46 25 WSW 1014,9 27 6 0,0
19.06.2018 16:00:00 12,5 4,1 - - 26 14 - - SW 1014,8 30 24 0,0
19.06.2018 15:00:00 12,9 4,5 - - 22 12 - - SW 1014,8 35 12 0,0
19.06.2018 14:00:00 13,5 6,4 - - 26 14 48 26 WSW 1014,4 30 12 0,0
19.06.2018 13:00:00 11,4 6,3 - - 31 17 48 26 W 1014,2 27 6 0,2
19.06.2018 12:00:00 12,0 5,1 - - 26 14 46 25 SW 1013,7 30 18 0,0
19.06.2018 11:00:00 11,6 5,7 - - 31 17 46 25 WSW 1013,2 23 6 0,0
19.06.2018 10:00:00 9,9 4,9 13,7 12,2 31 17 48 26 WSW 1013,3 29 6 0,0
19.06.2018 09:00:00 10,6 5,4 - - 26 14 57 31 SW 1012,4 27 12 0,0
19.06.2018 08:00:00 11,2 5,8 - - 28 15 54 29 SW 1011,3 35 42 0,0
19.06.2018 07:00:00 9,4 5,8 - - 29 16 50 27 WSW 1010,7 18 30 0,0
19.06.2018 06:00:00 9,9 5,2 - - 29 16 54 29 SW 1009,7 23 42 0,0
19.06.2018 05:00:00 9,4 5,1 - - 28 15 48 26 SW 1009,2 25 0 0,0
19.06.2018 04:00:00 9,0 5,3 - - 26 14 54 29 SW 1008,9 35 0 0,0
19.06.2018 03:00:00 9,4 5,0 - - 22 12 50 27 SW 1008,3 15 0 0,0
19.06.2018 02:00:00 9,0 5,0 - - 28 15 55 30 SW 1008,0 6 0 0,2
19.06.2018 01:00:00 9,7 3,9 - - 28 15 57 31 SW 1007,4 21 - -
19.06.2018 00:00:00 9,9 4,6 - - 28 15 68 37 SW 1007,0 24 0 0,0
18.06.2018 23:00:00 10,1 5,1 - - 29 16 55 30 SW 1006,4 13 0 0,0
18.06.2018 22:00:00 9,9 5,5 - - 26 14 55 30 SW 1006,3 23 0 0,0
18.06.2018 21:00:00 10,5 5,2 - - 24 13 54 29 SW 1005,8 25 6 0,0
18.06.2018 20:00:00 11,3 5,5 - - 28 15 65 35 SW 1005,3 23 54 0,0
18.06.2018 19:00:00 12,0 4,0 - - 35 19 68 37 SW 1004,9 30 54 0,0
18.06.2018 18:00:00 12,9 5,3 - - 37 20 68 37 SW 1004,5 50 60 0,0
18.06.2018 17:00:00 13,2 6,2 - - 29 16 57 31 SW 1004,7 30 30 0,0
18.06.2018 16:00:00 13,7 5,0 - - 34 18 61 33 SW 1004,7 35 42 0,0
18.06.2018 15:00:00 13,1 4,8 - - 29 16 63 34 SSW 1005,0 45 42 0,0
18.06.2018 14:00:00 13,9 5,6 - - 26 14 50 27 SSW 1004,4 35 30 0,0
18.06.2018 13:00:00 15,3 6,8 - - 22 12 52 28 SSW 1004,7 23 6 0,0
18.06.2018 12:00:00 12,6 5,7 - - 22 12 46 25 SSW 1005,2 26 0 0,0
18.06.2018 11:00:00 12,4 5,3 - - 16 9 - - S 1005,5 40 0 0,0
18.06.2018 10:00:00 11,5 6,0 14,0 12,2 18 10 - - SW 1005,7 45 0 0,0
18.06.2018 09:00:00 11,8 5,9 - - 15 8 - - SSW 1005,2 45 18 0,0
18.06.2018 08:00:00 12,2 6,5 - - 21 11 - - SW 1005,1 26 30 0,0
18.06.2018 07:00:00 11,3 5,9 - - 18 10 - - SW 1004,9 29 18 0,0
18.06.2018 06:00:00 11,0 6,2 - - 18 10 - - SW 1004,8 23 0 0,0
18.06.2018 05:00:00 11,2 6,0 - - 13 7 - - SSW 1004,6 22 0 0,0
18.06.2018 04:00:00 11,6 6,3 - - 21 11 - - WSW 1003,8 22 0 0,0
18.06.2018 03:00:00 11,4 6,9 - - 24 13 46 25 SW 1003,7 27 0 0,0
18.06.2018 02:00:00 11,6 7,9 - - 34 18 48 26 WSW 1003,4 45 0 0,0
18.06.2018 01:00:00 11,9 9,8 - - 26 14 - - SW 1003,3 40 - 0,0
18.06.2018 00:00:00 13,1 11,0 - - 15 8 - - SW 1002,7 30 0 0,2
17.06.2018 23:00:00 12,6 11,5 - - 16 9 - - S 1002,8 5 0 0,0
17.06.2018 22:00:00 13,2 10,6 - - 18 10 - - SSE 1002,4 22 0 0,0
17.06.2018 21:00:00 13,6 9,7 - - 16 9 - - S 1002,7 50 0 0,0
17.06.2018 20:00:00 13,3 10,0 - - 16 9 - - SSE 1003,2 30 0 0,0
17.06.2018 19:00:00 15,1 8,5 - - 18 10 - - SE 1003,5 26 0 0,0
17.06.2018 18:00:00 15,3 8,2 - - 16 9 - - SSE 1004,2 50 0 0,0
17.06.2018 17:00:00 16,1 8,3 - - 11 6 - - S 1004,8 50 0 0,0
17.06.2018 16:00:00 16,2 7,6 - - 15 8 - - S 1005,1 40 18 0,0
17.06.2018 15:00:00 15,7 8,4 - - 18 10 - - SSE 1005,4 30 6 0,0
17.06.2018 14:00:00 14,8 7,7 - - 15 8 - - S 1006,1 50 6 0,0
17.06.2018 13:00:00 15,3 8,0 - - 13 7 - - S 1006,0 27 6 0,0
17.06.2018 12:00:00 14,6 7,3 - - 15 8 - - S 1006,3 50 24 0,0
17.06.2018 11:00:00 15,5 7,7 - - 11 6 - - S 1006,3 50 60 0,0
17.06.2018 10:00:00 14,4 7,1 13,7 12,2 9 5 - - S 1006,3 30 60 0,0
17.06.2018 09:00:00 13,1 8,8 - - 8 4 - - SSE 1006,5 35 18 0,0
17.06.2018 08:00:00 12,1 9,2 - - 8 4 - - S 1006,5 28 0 0,0
17.06.2018 07:00:00 10,8 8,2 - - 8 4 - - SW 1006,5 35 0 0,0
17.06.2018 06:00:00 10,5 9,0 - - 5 3 - - SE 1006,3 26 0 0,0
17.06.2018 05:00:00 10,5 8,6 - - 8 4 - - SSW 1006,4 22 0 0,0
17.06.2018 04:00:00 10,3 9,6 - - 5 3 - - WSW 1006,5 26 0 0,0
17.06.2018 03:00:00 9,9 9,6 - - 2 1 - - NNW 1006,5 30 0 0,0
17.06.2018 02:00:00 10,3 9,8 - - 2 1 - - ESE 1006,5 30 0 0,4
17.06.2018 01:00:00 10,6 10,1 - - 5 3 - - SSW 1006,7 9 - 0,0
17.06.2018 00:00:00 10,6 9,8 - - 11 6 - - WNW 1006,1 45 0 0,2
16.06.2018 23:00:00 11,8 9,3 - - 2 1 - - E 1005,8 50 0 0,0
16.06.2018 22:00:00 12,5 9,1 - - 11 6 - - NE 1005,7 50 0 0,0
16.06.2018 21:00:00 13,0 9,3 - - 9 5 - - NE 1005,5 50 0 0,0
16.06.2018 20:00:00 13,4 8,7 - - 9 5 - - ESE 1005,0 50 0 0,0
16.06.2018 19:00:00 14,0 8,8 - - 8 4 - - ESE 1005,1 50 0 0,0
16.06.2018 18:00:00 13,2 9,3 - - 13 7 - - ENE 1005,4 50 0 0,2
16.06.2018 17:00:00 12,7 9,5 - - 16 9 - - ESE 1005,7 50 0 0,2
16.06.2018 16:00:00 14,3 8,9 - - 16 9 - - ESE 1005,4 45 0 0,0
16.06.2018 15:00:00 13,9 9,4 - - 18 10 - - E 1005,4 40 0 0,2
16.06.2018 14:00:00 13,8 7,6 - - 13 7 - - E 1005,8 40 0 0,0
16.06.2018 13:00:00 13,5 8,0 - - 16 9 - - E 1006,2 40 0 0,0
16.06.2018 12:00:00 13,6 7,7 - - 18 10 - - SE 1006,3 35 0 0,0
16.06.2018 11:00:00 13,5 8,2 - - 18 10 - - SE 1006,4 50 0 0,0
16.06.2018 10:00:00 13,2 7,9 13,9 12,2 16 9 - - SE 1006,6 50 0 0,0
16.06.2018 09:00:00 13,3 7,8 - - 13 7 - - ESE 1007,0 45 6 0,0
16.06.2018 08:00:00 12,3 8,2 - - 5 3 - - SE 1007,2 50 0 0,0
16.06.2018 07:00:00 9,8 8,1 - - 8 4 - - NW 1007,6 50 18 0,0
16.06.2018 06:00:00 7,6 7,3 - - 5 3 - - NNW 1007,8 45 24 0,0
16.06.2018 05:00:00 6,5 6,0 - - 5 3 - - W 1008,1 35 0 0,0
16.06.2018 04:00:00 7,3 6,7 - - 5 3 - - WNW 1008,6 40 0 0,0
16.06.2018 03:00:00 7,2 6,3 - - 4 2 - - NNW 1009,1 50 0 0,0
16.06.2018 02:00:00 8,9 7,5 - - 8 4 - - N 1009,2 45 0 0,0
16.06.2018 01:00:00 9,7 8,3 - - 4 2 - - S 1009,5 50 - 0,0
16.06.2018 00:00:00 9,6 8,4 - - 5 3 - - WSW 1009,5 50 0 0,0
15.06.2018 23:00:00 9,7 8,2 - - 5 3 - - SSE 1009,5 35 0 0,2
15.06.2018 22:00:00 10,9 8,0 - - 8 4 - - S 1009,4 30 6 0,0
15.06.2018 21:00:00 11,8 7,7 - - 4 2 - - WSW 1009,0 45 0 0,0
15.06.2018 20:00:00 11,7 8,0 - - 11 6 - - SW 1008,9 35 12 0,0
15.06.2018 19:00:00 14,8 5,7 - - 21 11 - - WSW 1008,4 40 60 0,0
15.06.2018 18:00:00 15,1 6,5 - - 16 9 - - SW 1008,3 27 48 0,0
15.06.2018 17:00:00 14,6 6,2 - - 16 9 - - SW 1008,2 35 30 0,0
15.06.2018 16:00:00 13,6 6,0 - - 22 12 - - SW 1008,1 50 12 0,0
15.06.2018 15:00:00 13,3 7,1 - - 16 9 - - SW 1008,0 35 24 0,0
15.06.2018 14:00:00 11,1 9,2 - - 13 7 - - SW 1008,2 17 12 1,6
15.06.2018 13:00:00 14,1 6,4 - - 29 16 - - WSW 1007,1 35 54 0,0
15.06.2018 12:00:00 14,7 8,3 - - 24 13 - - SW 1006,7 30 60 0,0
15.06.2018 11:00:00 13,2 6,7 - - 22 12 - - SW 1006,5 45 36 0,0
15.06.2018 10:00:00 12,4 9,1 13,7 12,4 15 8 - - SSW 1006,3 45 24 0,0
15.06.2018 09:00:00 11,4 9,1 - - 15 8 - - SW 1005,8 35 6 0,8
15.06.2018 08:00:00 10,9 8,3 - - 21 11 - - WSW 1005,3 11 0 0,4
15.06.2018 07:00:00 10,3 8,1 - - 18 10 - - SW 1004,8 7 0 0,2
15.06.2018 06:00:00 10,2 7,2 - - 15 8 - - S 1004,1 45 0 0,0
15.06.2018 05:00:00 10,6 6,6 - - 15 8 - - SSW 1004,1 50 0 0,0
15.06.2018 04:00:00 10,5 6,5 - - 16 9 - - SW 1003,6 50 0 0,0
15.06.2018 03:00:00 10,3 6,3 - - 18 10 - - SW 1003,5 50 0 0,0
15.06.2018 02:00:00 10,6 6,3 - - 18 10 - - SW 1003,4 17 0 0,0
15.06.2018 01:00:00 10,4 5,8 - - 21 11 - - SW 1003,1 11 - 0,0
15.06.2018 00:00:00 10,0 5,6 - - 24 13 - - SW 1002,8 40 0 0,0
14.06.2018 23:00:00 10,0 5,2 - - 26 14 50 27 SW 1002,5 35 0 0,0
14.06.2018 22:00:00 9,9 6,4 - - 22 12 50 27 SW 1001,7 19 0 0,0
14.06.2018 21:00:00 10,4 4,5 - - 29 16 67 36 SW 1001,0 30 24 0,0
14.06.2018 20:00:00 11,0 5,7 - - 31 17 74 40 SW 1000,0 27 36 0,0
14.06.2018 19:00:00 10,3 6,8 - - 35 19 81 44 SW 999,1 22 48 0,0
14.06.2018 18:00:00 12,3 6,1 - - 42 23 80 43 WSW 997,6 29 42 0,0
14.06.2018 17:00:00 11,9 6,3 - - 46 25 81 44 WSW 996,4 26 24 0,2
14.06.2018 16:00:00 10,6 6,9 - - 50 27 76 41 WSW 995,3 9 12 0,4
14.06.2018 15:00:00 11,9 6,8 - - 54 29 87 47 WSW 993,5 24 36 0,0
14.06.2018 14:00:00 10,6 9,0 - - 57 31 93 50 WSW 991,6 6 0 1,0
14.06.2018 13:00:00 9,9 9,8 - - 57 31 81 44 WSW 989,2 4,2 0 4,0
14.06.2018 12:00:00 10,4 9,9 - - 50 27 91 49 WSW 986,4 3,9 0 2,2
14.06.2018 11:00:00 11,5 9,9 - - 34 18 65 35 WSW 983,2 11 0 0,2
14.06.2018 10:00:00 12,2 9,5 14,0 12,4 39 21 65 35 SW 979,9 14 6 0,8
14.06.2018 09:00:00 15,2 11,1 - - 21 11 61 33 S 978,5 45 18 0,0
14.06.2018 08:00:00 15,1 10,1 - - 37 20 55 30 S 978,6 35 30 0,0
14.06.2018 07:00:00 14,1 12,1 - - 28 15 - - SSE 979,6 40 0 0,4
14.06.2018 06:00:00 14,3 13,0 - - 24 13 - - SSE 980,7 15 0 1,2
14.06.2018 05:00:00 14,6 13,2 - - 18 10 - - S 981,5 50 0 2,4
14.06.2018 04:00:00 14,7 13,2 - - 24 13 50 27 SSE 982,8 9 0 0,6
14.06.2018 03:00:00 14,6 13,1 - - 31 17 48 26 SSE 984,2 14 0 0,2
14.06.2018 02:00:00 14,3 12,0 - - 24 13 50 27 SSE 985,7 8 0 0,4
14.06.2018 01:00:00 13,8 11,4 - - 24 13 54 29 SE 987,6 28 - 0,2
14.06.2018 00:00:00 13,3 10,7 - - 34 18 52 28 ESE 989,6 24 0 0,8
13.06.2018 23:00:00 13,2 10,4 - - 35 19 63 34 ESE 992,8 19 0 0,6
13.06.2018 22:00:00 13,2 10,6 - - 26 14 46 25 SE 995,2 19 0 0,2
13.06.2018 21:00:00 13,1 10,6 - - 18 10 - - SE 997,2 18 0 0,6
13.06.2018 20:00:00 13,4 10,5 - - 26 14 - - SE 998,8 45 0 0,2
13.06.2018 19:00:00 13,2 10,6 - - 22 12 - - SE 1000,6 30 0 0,2

tt = Température de l'air
td = dewpoint
tt -20cm = Température de l'air -20cm
tt -100cm = Température de l'air -100cm
ff = Vitesse du vent
fx = gusts
dd = Direction du vent
ppp = reduced air pressure
vv = visibility
sd = Ensoleillement
rr = Quantités de précipitations

stations d'obs. à proximité